Location: Hilton Head Island
(32.2163°N, 80.7526°W)
Time: 13:59:52
(UTC-04:00)

Transit 2A Rocket - Pass Details

Date: 13 February 2026
Orbit: 583 x 900 km, 66.7° (Epoch: 12 March)

Event Time Altitude Azimuth Distance (km) Brightness Sun altitude
Rises 17:19:41 0° 217° (SW) 3,419 9.5 8.8°
Reaches altitude 10° 17:22:10 10° 222° (SW) 2,516 9.0 8.3°
Maximum altitude 17:27:56 54° 299° (WNW) 1,076 6.3 7.1°
Drops below altitude 10° 17:33:50 10° 16° (NNE) 2,574 7.4 6.0°
Sets 17:36:25 0° 21° (NNE) 3,506 8.0 5.5°
